Starlink 30964

operational
NORAD ID: 58402 Int'l Des: 2023-180 Owner: SPXS Country: US Constellation: starlink
LEOCIRCULAR

Starlink 30964について

説明を読み込み中...

リアルタイム位置

3D地球を読み込み中...

次回通過

高度履歴

Altitude vs Time

uPlot chart will show altitude changes over time

軌道要素

1 58402U 23180A 25354.08287461 .00000185 00000-0 28781-4 0 9992
2 58402 43.0029 128.2892 0001318 267.1898 92.8794 15.02535496115618
Epoch: Dec 20, 2025 • Age: 7 hours

現在のステータス

高度 566.1 km
速度 7.58 km/s
衛星直下点 -29.13°S, 113.34°E
打ち上げ日 Nov 22, 2023
運用期間 2 years
タイプ internet

技術仕様

分類 Payload
質量 730.00 kg
乾燥質量 700.00 kg
総質量 730.00 kg
長さ 0.30 m
直径 4.10 m
スパン 29.00 m
形状 Box + pan
製造者 SPXS
バスタイプ Starlink V2M
フェーズステータス In Orbit
所有者/国 SPXS/US

大規模コンステレーション

Loading constellations...